TimeEST,TemperatureF,Dew PointF,Humidity,Sea Level PressureIn,VisibilityMPH,Wind Direction,Wind SpeedMPH,Gust SpeedMPH,PrecipitationIn,Events,Conditions,WindDirDegrees,DateUTC
12:54 AM,10.0,7.0,87,29.81,-9999.0,North,-9999.0,-,N/A,,Unknown,0,2013-01-22 05:54:00
1:54 AM,9.0,5.0,84,29.81,-9999.0,North,-9999.0,-,0.01,,Unknown,0,2013-01-22 06:54:00
2:54 AM,8.1,3.9,83,29.81,-9999.0,North,-9999.0,-,0.01,,Unknown,0,2013-01-22 07:54:00
3:54 AM,8.1,3.9,83,29.81,-9999.0,North,-9999.0,-,0.02,,Unknown,0,2013-01-22 08:54:00
4:54 AM,7.0,3.0,84,29.81,-9999.0,North,-9999.0,-,N/A,,Unknown,0,2013-01-22 09:54:00
5:54 AM,7.0,1.9,80,29.83,-9999.0,North,-9999.0,-,N/A,,Unknown,0,2013-01-22 10:54:00
6:54 AM,5.0,1.0,84,29.85,-9999.0,North,-9999.0,-,N/A,,Unknown,0,2013-01-22 11:54:00
7:54 AM,5.0,-0.0,80,29.86,-9999.0,North,-9999.0,-,N/A,,Unknown,0,2013-01-22 12:54:00
8:54 AM,6.1,1.0,80,29.88,-9999.0,North,-9999.0,-,N/A,,Unknown,0,2013-01-22 13:54:00
9:54 AM,9.0,1.9,73,29.88,-9999.0,North,-9999.0,-,N/A,,Unknown,0,2013-01-22 14:54:00
10:54 AM,12.0,3.9,70,29.88,-9999.0,North,-9999.0,-,N/A,,Unknown,0,2013-01-22 15:54:00
11:54 AM,12.9,1.0,59,29.86,-9999.0,North,-9999.0,-,N/A,,Unknown,0,2013-01-22 16:54:00
12:54 PM,14.0,1.9,59,29.86,-9999.0,North,-9999.0,-,N/A,,Unknown,0,2013-01-22 17:54:00
1:54 PM,14.0,1.9,59,29.87,-9999.0,North,-9999.0,-,N/A,,Unknown,0,2013-01-22 18:54:00
2:54 PM,14.0,-0.9,52,29.90,-9999.0,North,-9999.0,-,N/A,,Unknown,0,2013-01-22 19:54:00
3:54 PM,10.0,-0.0,64,29.95,-9999.0,North,-9999.0,-,N/A,,Unknown,0,2013-01-22 20:54:00
4:54 PM,9.0,-4.0,56,29.98,-9999.0,North,-9999.0,-,N/A,,Unknown,0,2013-01-22 21:54:00
5:54 PM,7.0,-5.1,58,30.01,-9999.0,North,-9999.0,-,N/A,,Unknown,0,2013-01-22 22:54:00
6:54 PM,6.1,-6.0,58,30.04,-9999.0,North,-9999.0,-,N/A,,Unknown,0,2013-01-22 23:54:00
7:54 PM,5.0,-8.0,55,30.05,-9999.0,North,-9999.0,-,N/A,,Unknown,0,2013-01-23 00:54:00
8:54 PM,1.9,-17.0,41,30.06,-9999.0,North,-9999.0,-,N/A,,Unknown,0,2013-01-23 01:54:00
9:54 PM,1.0,-16.1,45,30.06,-9999.0,North,-9999.0,-,N/A,,Unknown,0,2013-01-23 02:54:00
10:54 PM,-0.0,-11.9,57,30.08,-9999.0,North,-9999.0,-,N/A,,Unknown,0,2013-01-23 03:54:00
11:54 PM,-0.9,-9.0,69,30.08,-9999.0,North,-9999.0,-,N/A,,Unknown,0,2013-01-23 04:54:00